Location: Bernay
(48.6766°N, 2.9386°E)
Time: 18:47:40
(UTC+00:00)

Cosmos 304 Rocket - Pass Details

Date: 12 January 2026
Orbit: 669 x 676 km, 74.0° (Epoch: 18 February)

Event Time Altitude Azimuth Distance (km) Brightness Sun altitude
Rises 17:09:41 0° 336° (NNW) 3,039 7.1 -8.7°
Reaches altitude 10° 17:12:00 10° 337° (NNW) 2,120 6.3 -9.0°
Maximum altitude 17:16:46 88° 249° (WSW) 681 3.8 -9.8°
Drops below altitude 10° 17:21:30 10° 159° (SSE) 2,100 6.3 -10.5°
Sets 17:23:47 0° 160° (SSE) 3,008 7.1 -10.8°
